OBJECT A, 100080

Orbit data source: Space-Track

You're viewing an uncataloged RSO

Recently launched and/or uncataloged RSOs may have evolving metadata. Metadata may include the following, but is not limited to: Owner, Manufacturer, Bus, Motor, and Mission.

OBJECT A, 100080 is an Indian satellite in LEO that was launched on Sat, 18 Jul 2026 UTC launched from the Sirharikota (SRI). Unknown objects in Earth's orbit typically refer to objects detected orbiting the Earth but have not yet been identified or cataloged. These objects could be anything from previously untracked satellites, spent rocket stages, debris from satellite collisions, or even natural meteoroids temporarily captured by Earth's gravity.

Loading next visibility...
Identifier
100080, 2026-164A
Orbit
LEO
Country
Flag of ININ / IND
Related business
Manufacturer
GRAHAA
Mission
Operational spacecraft
Bus & Motor
CUBESAT 1U, Unknown motor
Mass
1 kg wet, 1 kg dry
Launch date (UTC)
2026-07-18 (3 weeks ago)
Launch vehicle
Unknown
Launch site
Sirharikota (SRI)
Object type
Unknown
Shape & HBR
BOX, 1.1 m
Radar Cross Section
Large (>1 m²)

Expand to show TLE details & history
Last TLE update: 23 hours ago

TLE from 23 hours ago
0 OBJECT A
1 A0080U 26164A   26219.50718637  .00004009  00000-0  10804-3 0  9993
2 A0080  59.9264 225.7099 0013621 323.8573  36.1592 15.39896694  3125
Epoch: 2026-08-07T12:10Z
TLE epoch observation values (Epoch: 2026-08-07T12:10:20.902Z)
Latitude
-0.00002°
Longitude
87.0909°
Altitude
440.516 km
Speed
7.653 km/s
True Right ascension
15h 02m 50s
True Declination
0° 00' 00"
Sunlit
Object was in daylight at epoch
Visualization orbit readout
Latitude
Unknown
Longitude
Unknown
Altitude
Unknown
Speed
Unknown
Apparent Right ascension
Unknown
Apparent Declination
Unknown
Sunlit
N/A
Visualization observer readout
Local Sidereal Time
01:03:56
Azimuth
Unknown
Elevation
Unknown
Doppler factor
Unknown
Orbital elements
Apogee altitude
454.918 km
Perigee altitude
436.328 km
Semi-major axis
6,823.76 km
Eccentricity
0.00136
Inclination
59.9264°
RAAN
225.7099°
Arg. of periapsis
323.8573°
True anomaly
36.25142°
Mean anomaly
36.1592°
Eccentric anomaly
36.2053°
Mean motion
3.85042 °/min
Orbital period
93.5 mins
BSTAR
0.00010804
Loading maneuver chart data...
Computing Atmospheric mass density...
Loading historical data...
Loading historical data...
Loading historical data...
Loading historical data...
Loading historical data...
Loading historical data...
Loading historical data...
Other satellites on launch #164 in the year 2026 (2026-07-18 UTC)

Documentation

Showing up to 5 results
|